Погода в Сважендзе

Польша     52°24′22″N   17°04′55″E
темп.,
°C
ветер,
м/с
пор.,
м/с
влажн.,
%
обл.,
%
осадки,
мм/ч
давл.,
гПа
погр.,
м
19 января, ср
ср1901:00+2зюз41093100 0.0 1032302
04:00+1зюз5129671 0.0 1029335
07:00+1зюз51197100 0.0 1027316
10:00+2зюз41093100 0.0 1025291
13:00+4юз4883100 0.0 1022366
16:00+2ююз5108697 0.0 1018268
19:00+2юз61581100 0.0 1014437
22:00+2зюз81680100 0.0 1011752
20 января, чт
чт2001:00+2зюз91896100 0.1 10071086
04:00+1зсз917625 0.4 10081265
07:00−1зсз91689100 0.8 10081468
10:00−1зсз10176893 0.5 10081447
13:00−1зсз101874100 0.6 10081846
16:00−1зсз8146186 0.3 10101154
19:00−1зсз814565 0.8 10121128
22:00−2зсз713525 0.0 1015926
21 января, пт
пт2101:00−2зсз813678 0.0 1016852
04:00−2зсз8149098 0.1 1016889
07:00−2зсз814749 0.2 1017855
10:00−1зсз7126847 0.0 10171291
13:00+1сз71155100 0.0 10171732
16:00−1сз6116046 0.0 1018674
19:00−2зсз5116521 0.0 1019548
22:00−3зсз512685 0.0 1020465
22 января, сб
сб2201:00−2зсз6128199 0.0 1019552
04:00−2зсз6128657 0.1 1018508
07:00−2сз510895 0.3 1019363
10:00−1ссз612645 0.0 10211074
13:00+1с610675 0.0 10231114
16:000ссз510685 0.0 1025330
19:00−2сз410735 0.0 1028323
22:00−3сз49845 0.0 1030282
23 января, вс
вс2301:00−3сз48895 0.0 1030232
04:00−3сз48875 0.0 1031234
07:00−4сз38895 0.0 1032215
10:00−2ссз36815 0.0 1033230
13:000с34725 0.0 1033436
16:00−1ссв228197 0.0 103519
19:00−1всв237299 0.0 103673
22:00−2юв22765 0.0 103716